This is the latest recevied weather packets stored in our database for station/object KM4KMS. If no packets are shown the sender has not sent any weather packets the latest 10 day(s).
| Time | Temp. | Humidity | Pressure | Rain* | Wind** | Luminosity | Snow |
|---|---|---|---|---|---|---|---|
| 1778059180 | 8.89° C | 99% | 1007.9 hPa | 0 mm | - | 0 W/m² | - |
| 1778058879 | 8.89° C | 99% | 1007.7 hPa | 0 mm | - | 0 W/m² | - |
| 1778058576 | 8.89° C | 99% | 1007.8 hPa | 1.27 mm | - | 0 W/m² | - |
| 1778058274 | 8.89° C | 99% | 1007.1 hPa | 1.27 mm | - | 0 W/m² | - |
| 1778057970 | 8.89° C | 99% | 1008.1 hPa | 0 mm | - | 0 W/m² | - |
| 1778057667 | 9.44° C | 99% | 1008.2 hPa | 0 mm | - | 0 W/m² | - |
| 1778057363 | 9.44° C | 99% | 1007.9 hPa | 0 mm | - | 0 W/m² | - |
| 1778057061 | 9.44° C | 99% | 1007.8 hPa | 0 mm | - | 0 W/m² | - |
| 1778056756 | 9.44° C | 99% | 1007.6 hPa | 0 mm | - | 0 W/m² | - |
| 1778056454 | 9.44° C | 99% | 1006.9 hPa | 0 mm | - | 0 W/m² | - |
| 1778056151 | 9.44° C | 99% | 1006.9 hPa | 0 mm | - | 0 W/m² | - |
| 1778055848 | 10° C | 99% | 1006.9 hPa | 0 mm | - | 0 W/m² | - |
| 1778055543 | 10° C | 99% | 1006.8 hPa | 0 mm | - | 0 W/m² | - |
| 1778055242 | 10° C | 99% | 1006.7 hPa | 0 mm | - | 0 W/m² | - |
| 1778054939 | 10° C | 99% | 1006.4 hPa | 0 mm | - | 0 W/m² | - |
| 1778054636 | 10° C | 99% | 1006.5 hPa | 1.78 mm | - | 0 W/m² | - |
| 1778054334 | 10° C | 99% | 1006 hPa | 1.78 mm | - | 0 W/m² | - |
| 1778054030 | 10° C | 99% | 1006 hPa | 0 mm | - | 0 W/m² | - |
| 1778053728 | 10.56° C | 99% | 1006 hPa | 0 mm | - | 0 W/m² | - |
| 1778053424 | 10.56° C | 99% | 1006.3 hPa | 1.78 mm | - | 0 W/m² | - |
| 1778053122 | 10.56° C | 99% | 1006.1 hPa | 0 mm | - | 0 W/m² | - |
| 1778052820 | 10.56° C | 99% | 1005.7 hPa | 1.27 mm | - | 0 W/m² | - |
| 1778052516 | 10.56° C | 99% | 1005.5 hPa | 3.05 mm | - | 0 W/m² | - |
| 1778052214 | 10.56° C | 99% | 1005.5 hPa | 4.83 mm | - | 0 W/m² | - |
| 1778051912 | 10.56° C | 99% | 1005.4 hPa | 4.83 mm | - | 0 W/m² | - |
* Rain latest hour (hover to see other rain measurements)
** Current wind speed in m/s (hover to see current wind gust speed)